This is the latest recevied weather packets stored in our database for station/object KJ5IIV. If no packets are shown the sender has not sent any weather packets the latest 1 day(s).
| Time | Temp. | Humidity | Pressure | Rain* | Wind** | Luminosity | Snow |
|---|---|---|---|---|---|---|---|
| 1778036719 | 24.44° C | 85% | 1006.1 hPa | 0 mm | - | 0 W/m² | - |
| 1778036416 | 24.44° C | 84% | 1006.3 hPa | 0 mm | - | 0 W/m² | - |
| 1778035506 | 24.44° C | 84% | 1005.9 hPa | 0 mm | - | 0 W/m² | - |
| 1778034595 | 24.44° C | 84% | 1006.1 hPa | 0 mm | - | 0 W/m² | - |
| 1778034293 | 25° C | 83% | 1005.8 hPa | 0 mm | - | 0 W/m² | - |
| 1778033991 | 25° C | 83% | 1005.8 hPa | 0 mm | - | 0 W/m² | - |
| 1778033688 | 24.44° C | 84% | 1005.4 hPa | 0 mm | - | 0 W/m² | - |
| 1778033385 | 24.44° C | 84% | 1005.5 hPa | 0 mm | - | 0 W/m² | - |
| 1778033083 | 24.44° C | 84% | 1005.7 hPa | 0 mm | - | 0 W/m² | - |
| 1778032477 | 25° C | 82% | 1006 hPa | 0 mm | - | 0 W/m² | - |
| 1778032174 | 25° C | 82% | 1006 hPa | 0 mm | - | 0 W/m² | - |
| 1778031871 | 25° C | 82% | 1006.2 hPa | 0 mm | - | 0 W/m² | - |
| 1778031567 | 25° C | 81% | 1006 hPa | 0 mm | - | 0 W/m² | - |
| 1778031265 | 25.56° C | 81% | 1006 hPa | 0 mm | - | 0 W/m² | - |
| 1778030961 | 25.56° C | 81% | 1005.7 hPa | 0 mm | - | 0 W/m² | - |
| 1778030658 | 25.56° C | 81% | 1005.8 hPa | 0 mm | - | 0 W/m² | - |
| 1778030355 | 25.56° C | 80% | 1005.7 hPa | 0 mm | - | 0 W/m² | - |
| 1778030052 | 25.56° C | 80% | 1005.5 hPa | 0 mm | - | 1 W/m² | - |
| 1778029749 | 26.11° C | 79% | 1005.5 hPa | 0 mm | - | 2 W/m² | - |
| 1778029448 | 26.11° C | 79% | 1005.6 hPa | 0 mm | - | 3 W/m² | - |
| 1778029144 | 26.11° C | 78% | 1005.6 hPa | 0 mm | - | 4 W/m² | - |
| 1778028536 | 26.67° C | 77% | 1005.7 hPa | 0 mm | - | 11 W/m² | - |
| 1778028235 | 26.67° C | 76% | 1005.6 hPa | 0 mm | - | 14 W/m² | - |
| 1778027931 | 26.67° C | 76% | 1005.3 hPa | 0 mm | - | 17 W/m² | - |
| 1778027020 | 27.22° C | 74% | 1005.2 hPa | 0 mm | - | 33 W/m² | - |
* Rain latest hour (hover to see other rain measurements)
** Current wind speed in m/s (hover to see current wind gust speed)